Regional Weather Roundup
Issued by NWS

Home | Current Version | Previous Version | Graphics & Text | Print | Product List | Glossary On
Versions: 1 2 3 4 5 6 7 8 9 10 11 12 13 14 15 16 17 18 19 20 21 22 23 24 25 26 27 28 29 30 31 32 33 34 35 36 37 38 39 40 41 42 43 44 45 46 47 48 49 50
000
ASUS43 KLSX 081057
RWRMO

WEATHER SUMMARY FOR MISSOURI
NATIONAL WEATHER SERVICE SPRINGFIELD MO
500 AM CST THU DEC 08 2016

NOTE: "FAIR" INDICATES FEW OR NO CLOUDS BELOW 12,000 FEET WITH NO
       SIGNIFICANT WEATHER AND/OR OBSTRUCTIONS TO VISIBILITY.
       CURRENT SKY AND/OR WEATHER CONDITIONS ARE NOT AVAILABLE FOR
       CHILLICOTHE AND FARMINGTON.

MOZ001>031-035>038-043-044-053-054-081200-
...NORTHERN AND WESTERN MISSOURI...

CITY           SKY/WX    TMP DP  RH WIND       PRES   REMARKS
KANSAS CTY INT CLEAR     16   5  62 NW12G21   30.51R WCI   3
LEE`S SUMMIT   CLEAR     17   7  64 NW12      30.51R WCI   4
ST JOSEPH      CLEAR     15   6  67 NW12G21   30.54R WCI   2
CHILLICOTHE      N/A     17   7  64 NW10      30.49R WCI   5

$$
MOZ066>068-077>081-088>096-101>105-081200-
...SOUTHWEST MISSOURI...

CITY           SKY/WX    TMP DP  RH WIND       PRES   REMARKS
SPRINGFIELD    CLOUDY    19  12  74 W7        30.48R WCI  10
JOPLIN         CLOUDY    18  11  74 W6        30.57R WCI  10

$$
MOZ032>034-039>042-045>050-055>058-069>072-081200-
...CENTRAL MISSOURI...

CITY           SKY/WX    TMP DP  RH WIND       PRES   REMARKS
COLUMBIA       NOT AVBL
JEFFERSON CITY PTCLDY    20  11  68 W10       30.49R WCI   9
ROLLA          CLEAR     18  10  71 W10       30.42R WCI   6
SEDALIA        CLEAR     18   9  68 W8        30.49R WCI   8
WARRENSBURG    CLEAR     18   9  68 W7        30.51R WCI   8

$$
MOZ051-052-059>065-081200-
...EAST CENTRAL MISSOURI...

CITY           SKY/WX    TMP DP  RH WIND       PRES   REMARKS
ST LOUIS INTL  PTCLDY    23  10  57 W17       30.41R WCI   9

$$
MOZ072>076-082>087-097>100-106>115-081200-
...SOUTH CENTRAL AND SOUTHEAST MISSOURI...

CITY           SKY/WX    TMP DP  RH WIND       PRES   REMARKS
CAPE GIRARDEAU CLEAR     27  16  63 NW13      30.42R WCI  16
POPLAR BLUFF   PTCLDY    28  19  69 NW7       30.44R WCI  21
WEST PLAINS    CLEAR     21  13  71 NW7       30.45R WCI  12

$$


USA.gov is the U.S. government's official web portal to all federal, state and local government web resources and services.